Lexington Weather

Lexington, Massachusetts, USA

77°F
8/3/2020 7:26am 
  • Lexington Conditions: Clear
  • Temperature: 76.6°F / 24.8°C 
  • Dew Point: 73.8°FDecreased 1.6°Fsince last hour.
  • Relative Humidity: 91%Decreased 5.0% since last hour.
  • Wind: Wind from SSW SSW 3 mph, 10-min avg: 4 mph, gust: 9 mph
  • Barometer: 29.84 in Steady
  • Visibility: 10 miles
  • Rain Today: 0.00 in
  •   

Regional Weather Roundup
for Boston / Norton, MA

        
000
ASUS41 KBOX 021604
RWRBOX

REGIONAL WEATHER ROUNDUP
NATIONAL WEATHER SERVICE BOSTON/NORTON MA
1200 PM EDT SUN AUG 02 2020

NOTE:  "FAIR" INDICATES FEW OR NO CLOUDS BELOW 12,000 FEET WITH NO 
SIGNIFICANT WEATHER AND/OR OBSTRUCTIONS TO VISIBILITY.

MAZALL-021700-
EASTERN MASSACHUSETTS
  
CITY           SKY/WX    TMP DP  RH WIND       PRES   REMARKS
BOSTON         CLOUDY    82  62  50 S12       29.98F                  
BEVERLY        CLOUDY    80  68  66 E12       29.98F                  
LAWRENCE       PTSUNNY   82  65  56 VRB7      30.00F                  
BEDFORD        CLOUDY    83  66  56 S8        29.97F                  
BLUE HILL      NOT AVBL                                               
NORWOOD        PTSUNNY   83  65  54 S12       29.98F                  
MARSHFIELD     PTSUNNY   84  64  51 S9        29.99S                  
PLYMOUTH       PTSUNNY   83  62  49 SW13      30.01F                  
TAUNTON        PTSUNNY   86  66  51 SE9       29.98F                  
NEW BEDFORD    PTSUNNY   84  69  60 S15       30.00F                  
$$

MAZALL-021700-
CAPE COD AND THE ISLANDS
  
CITY           SKY/WX    TMP DP  RH WIND       PRES   REMARKS
FALMOUTH       SUNNY     82  66  57 S14       30.02F                  
HYANNIS        MOSUNNY   81  69  67 S10       30.01F                  
CHATHAM        MOSUNNY   81  68  64 VRB7      30.05F                  
PROVINCETOWN   MOSUNNY   80  68  66 S15G23    30.02F                  
NANTUCKET      SUNNY     76  68  76 SE14      30.04F                  
MARTHAS VNYRD  MOSUNNY   80  69  69 S16       30.02F                  
$$
 
MAZALL-021700-
CENTRAL AND WESTERN MASSACHUSETTS
  
CITY           SKY/WX    TMP DP  RH WIND       PRES   REMARKS
WORCESTER      PTSUNNY   78  64  61 S14       30.02S                  
FITCHBURG      PTSUNNY   81  64  56 SE10      29.98F                  
ORANGE         PTSUNNY   81  62  52 S12G20    29.98F                  
SPRINGFIELD    DRIZZLE   83  66  56 S8G16     29.95F                  
WESTFIELD      CLOUDY    84  67  56 SE12      29.95F                  
NORTH ADAMS    PTSUNNY   75  67  76 NE6       29.94F                  
PITTSFIELD     CLOUDY    77  68  73 SE16G23   29.95F                  
$$
 
RIZALL-021700-
RHODE ISLAND
  
CITY           SKY/WX    TMP DP  RH WIND       PRES   REMARKS
PROVIDENCE     PTSUNNY   82  71  69 SE15      29.99F                  
NEWPORT        PTSUNNY   82  72  71 S14       30.00F                  
BLOCK ISLAND   PTSUNNY   81  72  74 S14       30.00F                  
SMITHFIELD     PTSUNNY   81  71  71 VRB7      30.00F                  
WESTERLY       PTSUNNY   81  71  71 S12       30.00F                  
$$
 
CTZALL-021700-
CONNECTICUT
  
CITY           SKY/WX    TMP DP  RH WIND       PRES   REMARKS
BRADLEY INTL   CLOUDY    83  67  58 S14       29.95F                  
HARTFORD       CLOUDY    82  69  64 SE8       29.95F                  
BRIDGEPORT     CLOUDY    80  73  79 SE12      29.93F                  
DANBURY        LGT RAIN  75  73  93 SE7       29.94F FOG              
GROTON         CLOUDY    79  71  76 SE12      29.98S                  
NEW HAVEN      CLOUDY    81  74  79 SE10      29.96S                  
CHESTER        NOT AVBL                                               
MERIDEN        CLOUDY    80  69  69 SE8       29.95F                  
WILLIMANTIC    CLOUDY    81  67  62 S10       29.98S                  
OXFORD         CLOUDY    76  71  85 SE9       29.98F                  
$$

MEZ002-015-021-024-NHZ003-005-008-011-012-014-VTZ005-008-021700-
NORTHERN NEW ENGLAND
  
CITY           SKY/WX    TMP DP  RH WIND       PRES   REMARKS
PORTLAND ME    PTSUNNY   82  67  60 S9        29.99F                  
BANGOR ME      CLOUDY    83  64  52 S13       29.99F                  
CONCORD NH     CLOUDY    80  64  58 S9G18     29.98F                  
MANCHESTER NH  CLOUDY    83  64  52 SW7       29.96F                  
NASHUA NH      CLOUDY    82  65  56 SE8       29.98F                  
PORTSMOUTH NH  PTSUNNY   82  68  61 S6        29.97F                  
JAFFREY NH     CLOUDY    76  62  62 VRB5      30.01F                  
KEENE NH       CLOUDY    75  68  78 CALM      29.97F                  
BURLINGTON VT  PTSUNNY   77  66  68 SE5       29.87F                  
MT. WASHINGTON CLOUDY    55  52  88 S32         N/A                   
$$

NYZ052-076-021700-
EASTERN NEW YORK
  
CITY           SKY/WX    TMP DP  RH WIND       PRES   REMARKS
ALBANY         PTSUNNY   77  70  79 SE15G22   29.90F                  
NEW YORK CITY  PTSUNNY   85  75  72 S17G32    29.90F HX  93           
$$
 
ANZALL-021700-
MARINE OBSERVATIONS
  
STATION/POSITION TIME  TEMP    WIND        PRES    VSBY  WAVE
                       AIR SEA DIR/SP/G                  HT/PER
                 (UTC) (F)     (DEG/KT/KT) (MB)    (MI)  (FT/S)
BOSTON BUOY      1550   73 71  120/ 10/ 12 1014.3F         1/ 9
BUZZARDS BAY     1500          150/ 12/ 13 1017.3F
NANTUCKET SOUND  1550      77  160/ 14/ 16   N/A           2/ 3
MASS BAY-STELLWA NOT AVBL
ISLE OF SHOALS   1500   73     160/ 11/ 11 1015.4R
S OF BLOCK IS    1526      73                N/A           3/10
$$

......................KEY.........................
  SKY/WX - SKY CONDITION/PRESENT WEATHER
  TMP    - TEMPERATURE IN FAHRENHEIT
  DWPT   - DEWPOINT IN FAHRENHEIT
  RH     - RELATIVE HUMIDITY IN PERCENT
  WIND   - DIRECTION AND SPEED IN MPH
  PRES   - MEAN SEA LEVEL PRESSURE IN INCHES OF HG
  WCI    - WIND CHILL INDEX
  VSB    - VISIBILITY IN MILES
  HX     - HEAT INDEX
  TC     - TEMPERATURE IN CELSIUS
  VRB    - VARIABLE WIND DIRECTION
  N/A    - NOT AVAILABLE
  
      

Other recent Regional Weather Roundups

Mon Aug 3, 7:04am

Mon Aug 3, 6:04am

Mon Aug 3, 5:04am

Mon Aug 3, 4:04am

Mon Aug 3, 3:04am

Mon Aug 3, 2:04am

Mon Aug 3, 1:04am

Mon Aug 3, 12:05am

Sun Aug 2, 11:04pm

Sun Aug 2, 10:04pm

Sun Aug 2, 9:04pm

Sun Aug 2, 8:04pm

Sun Aug 2, 7:04pm

Sun Aug 2, 6:04pm

Sun Aug 2, 5:04pm

Sun Aug 2, 4:05pm

Sun Aug 2, 3:04pm

Sun Aug 2, 2:05pm

Sun Aug 2, 1:04pm

Sun Aug 2, 11:04am

Sun Aug 2, 10:04am

Sun Aug 2, 9:05am

Sun Aug 2, 8:05am

Sun Aug 2, 7:04am

Sun Aug 2, 6:04am

Sun Aug 2, 5:04am

Sun Aug 2, 4:05am

Sun Aug 2, 3:04am

Sun Aug 2, 2:04am

Sun Aug 2, 1:04am

Sun Aug 2, 12:05am

Sat Aug 1, 11:04pm

Sat Aug 1, 10:04pm

Sat Aug 1, 9:04pm

Sat Aug 1, 8:05pm

Sat Aug 1, 7:04pm

Sat Aug 1, 6:04pm

Sat Aug 1, 5:05pm

Sat Aug 1, 4:05pm

Sat Aug 1, 3:04pm

Sat Aug 1, 2:04pm

Sat Aug 1, 1:04pm

Sat Aug 1, 12:04pm

Sat Aug 1, 11:05am

Sat Aug 1, 10:05am

Sat Aug 1, 9:04am

Sat Aug 1, 8:04am

Sat Aug 1, 7:04am

Sat Aug 1, 6:04am

Sat Aug 1, 5:04am

Sat Aug 1, 4:05am

Sat Aug 1, 3:04am

Sat Aug 1, 2:04am

Sat Aug 1, 1:04am

Sat Aug 1, 12:05am

Fri Jul 31, 11:05pm

Fri Jul 31, 10:04pm

Fri Jul 31, 9:04pm

Fri Jul 31, 8:05pm

Fri Jul 31, 7:05pm

Fri Jul 31, 6:04pm

Fri Jul 31, 5:04pm

Fri Jul 31, 4:05pm

Fri Jul 31, 3:04pm

Fri Jul 31, 2:05pm

Fri Jul 31, 1:04pm

Fri Jul 31, 12:04pm

Fri Jul 31, 11:04am

Fri Jul 31, 10:04am

Fri Jul 31, 9:04am

Fri Jul 31, 8:04am

Fri Jul 31, 7:04am

Fri Jul 31, 6:04am

Fri Jul 31, 5:04am

Fri Jul 31, 4:04am

Fri Jul 31, 3:04am

Fri Jul 31, 2:04am

Fri Jul 31, 1:05am

Fri Jul 31, 12:04am

Thu Jul 30, 11:04pm

Thu Jul 30, 10:04pm

Thu Jul 30, 9:04pm

Thu Jul 30, 8:04pm

Thu Jul 30, 7:05pm

Thu Jul 30, 6:04pm

Thu Jul 30, 5:04pm

Thu Jul 30, 4:05pm

Thu Jul 30, 3:04pm

Thu Jul 30, 2:05pm

Thu Jul 30, 1:04pm

Thu Jul 30, 12:04pm

Thu Jul 30, 11:04am

Thu Jul 30, 10:05am

Thu Jul 30, 9:04am

Thu Jul 30, 8:04am

Thu Jul 30, 7:04am

Thu Jul 30, 6:04am

Thu Jul 30, 5:04am

Thu Jul 30, 4:04am

Thu Jul 30, 3:04am

Thu Jul 30, 2:04am

Thu Jul 30, 1:04am

Thu Jul 30, 12:04am

Wed Jul 29, 11:04pm

Wed Jul 29, 10:04pm

Wed Jul 29, 9:04pm

Wed Jul 29, 8:04pm

Wed Jul 29, 7:05pm

Wed Jul 29, 6:05pm

Wed Jul 29, 5:04pm

Wed Jul 29, 4:04pm

Wed Jul 29, 3:04pm

Wed Jul 29, 2:04pm

Wed Jul 29, 1:05pm

Wed Jul 29, 12:05pm

Wed Jul 29, 11:04am

Wed Jul 29, 10:04am

Wed Jul 29, 9:04am

Wed Jul 29, 8:04am

Wed Jul 29, 7:04am

Wed Jul 29, 6:04am

Wed Jul 29, 5:04am

Wed Jul 29, 4:04am

Wed Jul 29, 3:04am

Wed Jul 29, 2:04am

Wed Jul 29, 1:04am

Wed Jul 29, 12:05am

Tue Jul 28, 11:05pm

Tue Jul 28, 10:05pm

Tue Jul 28, 9:04pm

Tue Jul 28, 8:04pm

Tue Jul 28, 7:04pm

Tue Jul 28, 6:04pm

Tue Jul 28, 5:04pm

Tue Jul 28, 4:05pm

Tue Jul 28, 3:05pm

Tue Jul 28, 2:04pm

Tue Jul 28, 1:05pm

Tue Jul 28, 12:04pm

Tue Jul 28, 11:04am

Tue Jul 28, 10:04am

Tue Jul 28, 9:04am

Tue Jul 28, 8:04am

Tue Jul 28, 7:04am

Tue Jul 28, 6:04am

Tue Jul 28, 5:04am

Tue Jul 28, 4:04am

Tue Jul 28, 3:04am

Tue Jul 28, 2:04am

Tue Jul 28, 1:04am

Tue Jul 28, 12:05am

Mon Jul 27, 11:04pm

Mon Jul 27, 10:05pm

Mon Jul 27, 9:05pm

Mon Jul 27, 8:04pm

Mon Jul 27, 7:04pm

Mon Jul 27, 6:05pm

Mon Jul 27, 5:05pm

Mon Jul 27, 4:04pm

Mon Jul 27, 3:04pm

Mon Jul 27, 2:04pm

Mon Jul 27, 1:04pm

Mon Jul 27, 12:04pm

Mon Jul 27, 11:04am

Mon Jul 27, 10:04am

Mon Jul 27, 9:04am

Mon Jul 27, 8:04am

Meta data:

ID: 48432939-e7ca-4852-b3c0-2f3228e706d1
Link: https://api.weather.gov/products/48432939-e7ca-4852-b3c0-2f3228e706d1